Location: Hebron
(33.0265°N, 96.8636°W)
Time: 21:04:33
(UTC+00:00)

Cosmos 1805 Rocket - Visible Passes

Search period start: 27 June 2022 00:00
Search period end: 07 July 2022 00:00
Orbit: 605 x 629 km, 82.5° (Epoch: 27 June)

Date Brightness Start Highest point End Pass type
(mag) Time Alt. Az. Time Alt. Az. Time Alt. Az.
27 Jun 4.2 10:16:36 10° S 10:20:57 58° E 10:25:18 10° NNE visible
28 Jun 3.6 10:33:19 10° SSW 10:37:43 70° W 10:42:08 10° N visible
29 Jun 6.3 09:14:36 10° ESE 09:17:07 15° E 09:19:38 10° NE visible
29 Jun 4.3 10:50:33 10° SW 10:54:34 34° W 10:58:37 10° NNW visible
30 Jun 5.4 09:29:55 10° SSE 09:33:43 29° E 09:37:32 10° NNE visible
01 Jul 4.1 09:46:46 14° S 09:50:24 58° E 09:54:45 10° NNE visible
02 Jul 3.5 10:03:58 18° SSW 10:07:10 69° W 10:11:34 10° N visible
03 Jul 6.2 08:44:03 10° ESE 08:46:34 15° E 08:49:04 10° NE visible
03 Jul 4.4 10:21:08 17° SW 10:24:02 34° W 10:28:02 10° NNW visible
04 Jul 5.2 09:01:07 20° SE 09:03:10 29° E 09:06:57 10° NNE visible
04 Jul 5.2 10:38:16 11° WSW 10:40:57 18° WNW 10:43:59 10° NNW visible
05 Jul 4.0 09:18:15 35° SSE 09:19:50 58° E 09:24:10 10° NNE visible
06 Jul 3.5 09:35:19 44° SSW 09:36:36 69° W 09:41:00 10° N visible
